Location: Nora Junction
(43.1400°N, 93.0163°W)
Time: 02:20:30
(UTC+00:00)

RESURS DK-1 - Pass Details

Date: 18 November 2025
Orbit: 524 x 535 km, 69.9° (Epoch: 08 December)

Event Time Altitude Azimuth Distance (km) Brightness Sun altitude
Rises 23:14:34 0° 340° (NNW) 2,696 5.8 -5.7°
Reaches altitude 10° 23:16:51 10° 347° (NNW) 1,800 4.9 -6.1°
Maximum altitude 23:20:40 41° 59° (ENE) 792 2.7 -6.8°
Drops below altitude 10° 23:24:27 10° 130° (SE) 1,786 4.6 -7.4°
Sets 23:26:42 0° 138° (SE) 2,671 5.6 -7.8°
